User: anonymous   Login
Location: Unspecified
(0.0000°N, 0.0000°E)
Time: 00:54:38
(UTC+00:00)
Language:

Explorer 27 - Orbit

View from above orbital plane
View from above orbital plane
View from above satellite
View from above satellite

Ground track
Ground track

The orbit data is extracted from the following two-line orbital elements,

1  1328U 65032A   17324.57724324 -.00000002 +00000-0 +11849-3 0  9990
2  1328 041.1851 088.8162 0250970 222.5324 135.5740 13.38546901568781
Epoch (UTC): 20 November 2017 13:51:13
Eccentricity: 0.0250970
inclination: 41.1851°
perigee height: 926 km
apogee height: 1303 km
right ascension of ascending node: 88.8162°
argument of perigee: 222.5324°
revolutions per day: 13.38546901
mean anomaly at epoch: 135.5740°
orbit number at epoch: 56878

The dashed part of the orbit path shows where the satellite is in the earth's shadow,  

DLR